[[{"header":{"parameterUnit":"m.s-1","parameterCategory":1,"la1":30.2991,"la2":30.254,"lo1":-89.0895,"lo2":-89.0444,"dy":0.0017,"dx":0.0017,"nx":28,"ny":28,"refTime":"2024-05-29T21:00:00:Z","depth":0,"parameterNumber":2,"parameterNumberName":"U-component_of_WINDS"},"data":[0,0,0,0,0,0,0,0,0,0,0,0,0,0,0,0,0,0,0,0,0,0,0,0,0,0,0,0,0,0,0,0,0,0,0,0,0,0,0,0,0,0,0,0,0,0,0,0,0,0,0,0,0,0,0,0,0,0,-2.2085,-2.2087,0,-2.222,-2.2221,-2.2223,-2.2292,-2.2292,-2.2292,-2.2292,-2.243,-2.2433,-2.2437,0,0,0,0,0,0,0,0,0,0,0,0,0,-2.1889,-2.1892,-2.2085,-2.2087,-2.2089,-2.222,-2.2221,-2.2223,-2.2292,-2.2292,-2.2292,-2.2292,-2.2429,-2.2433,-2.2437,0,0,0,0,0,0,0,0,0,0,0,0,0,-2.1994,-2.1893,-2.2085,-2.2139,-2.2145,-2.2219,-2.2222,-2.2224,-2.2292,-2.2292,-2.2292,-2.2292,-2.2427,-2.2433,-2.2438,-2.2469,0,0,-2.2454,-2.2457,0,0,0,0,0,0,0,0,-2.1988,-2.2001,-2.2129,-2.2135,-2.2142,-2.2239,-2.2203,-2.2306,-2.2292,-2.2236,-2.2292,-2.2292,-2.2366,-2.2377,-2.2402,-2.2476,-2.2482,-2.2455,-2.2458,-2.2461,-2.2462,0,0,0,0,0,0,0,-2.198,-2.1996,-2.2139,-2.2131,-2.2139,-2.2156,-2.2171,-2.2223,-2.2299,-2.2241,-2.2246,-2.2261,-2.237,-2.2396,-2.2406,-2.2484,-2.2455,-2.246,-2.2463,-2.2465,-2.2592,-2.2592,0,0,0,0,0,0,-2.1964,-2.1989,-2.2134,-2.2143,-2.2064,-2.216,-2.2177,-2.2208,-2.2299,-2.2313,-2.2261,-2.2264,-2.2387,-2.2399,-2.2411,-2.2454,-2.246,-2.2466,-2.2469,-2.2592,-2.2592,-2.2592,0,0,0,0,0,0,-2.196,-2.1977,-2.2129,-2.2067,-2.2088,-2.2163,-2.2198,-2.221,-2.2237,-2.2314,-2.2328,-2.2274,-2.2388,-2.2403,-2.2455,-2.246,-2.2468,-2.2473,-2.2592,-2.2592,-2.2592,-2.2541,0,0,0,0,0,0,-2.1954,-2.1975,-2.1987,-2.2067,-2.2091,-2.217,-2.2198,-2.2213,-2.2246,-2.2251,-2.233,-2.2343,-2.2389,-2.2446,-2.246,-2.2468,-2.2477,-2.2591,-2.2592,-2.2592,-2.2543,-2.2539,-2.2537,0,0,0,0,0,-2.1947,-2.1967,-2.1987,-2.2004,-2.2108,-2.217,-2.2184,-2.2236,-2.2246,-2.226,-2.2309,-2.234,-2.2457,-2.2451,-2.2467,-2.2476,-2.2591,-2.2592,-2.2592,-2.2544,-2.254,-2.2537,0,0,0,0,0,0,-2.1885,-2.1978,-2.2002,-2.2049,-2.2101,-2.2181,-2.22,-2.2231,-2.2281,-2.2284,-2.2347,-2.2364,-2.241,-2.2449,-2.244,-2.2512,-2.2527,-2.2531,-2.2485,-2.2482,-2.248,-2.2469,-2.2482,0,0,0,0,0,-2.1877,-2.192,-2.1999,-2.2032,-2.2058,-2.2124,-2.2153,-2.2189,-2.2246,-2.2268,-2.2322,-2.2376,-2.2425,-2.2456,-2.2505,-2.2549,-2.2567,-2.2563,-2.256,-2.2558,-2.256,-2.2587,-2.2586,-2.2593,-2.2593,-2.2593,0,0,-2.1861,-2.1917,-2.194,-2.2022,-2.2066,-2.2109,-2.2142,-2.2186,-2.2219,-2.2275,-2.2327,-2.2368,-2.2433,-2.2481,-2.2504,-2.2514,-2.2562,-2.2558,-2.2555,-2.2559,-2.2587,-2.2586,-2.2586,-2.2593,-2.2593,-2.2593,0,0,-2.1853,-2.19,-2.1933,-2.1978,-2.2045,-2.2089,-2.2097,-2.2174,-2.2203,-2.2257,-2.23,-2.234,-2.2423,-2.2468,-2.2502,-2.2512,-2.2543,-2.2526,-2.2511,-2.2537,-2.2536,-2.2536,-2.2541,-2.2541,-2.2528,-2.2528,-2.2528,0,-2.1824,-2.189,-2.1946,-2.1988,-2.2023,-2.2077,-2.2112,-2.2152,-2.2232,-2.2255,-2.2265,-2.2371,-2.2419,-2.2478,-2.2481,-2.2506,-2.2518,-2.2518,-2.2532,-2.2532,-2.2533,-2.2538,-2.2539,-2.2526,-2.2526,-2.2526,-2.2527,0,-2.1852,-2.1897,-2.1916,-2.1992,-2.203,-2.2067,-2.213,-2.2161,-2.2194,-2.2238,-2.2292,-2.2351,-2.2414,-2.2431,-2.2463,-2.2495,-2.2499,-2.252,-2.2536,-2.2529,-2.2535,-2.2537,-2.2522,-2.2523,-2.2524,-2.2525,0,0,-2.1808,-2.1916,-2.1922,-2.1957,-2.2037,-2.2073,-2.2114,-2.2175,-2.2201,-2.2255,-2.2291,-2.2361,-2.2381,-2.2419,-2.2457,-2.248,-2.2486,-2.2498,-2.25,-2.2494,-2.2526,-2.251,-2.2511,-2.2507,-2.2507,-2.2508,-2.252,0,-2.1812,-2.1887,-2.1939,-2.1994,-2.2037,-2.209,-2.2126,-2.2178,-2.222,-2.2264,-2.231,-2.2359,-2.2381,-2.2404,-2.2429,-2.2479,-2.2493,-2.2479,-2.2542,-2.2543,-2.2524,-2.2514,-2.2497,-2.2506,-2.2523,-2.2523,-2.2524,0,-2.1825,-2.1878,-2.1937,-2.2013,-2.2033,-2.2064,-2.2125,-2.2165,-2.2227,-2.2256,-2.2299,-2.2339,-2.2385,-2.2398,-2.2463,-2.2453,-2.2482,-2.2511,-2.2513,-2.252,-2.2533,-2.2522,-2.251,-2.2511,-2.2528,-2.2527,-2.2527,0,-2.1787,-2.1873,-2.192,-2.1949,-2.2038,-2.2059,-2.2097,-2.2159,-2.2193,-2.2247,-2.227,-2.2328,-2.236,-2.2405,-2.246,-2.2464,-2.252,-2.2537,-2.2546,-2.2545,-2.2555,-2.2554,-2.2548,-2.2574,-2.2574,-2.2574,-2.2574,0,-2.1786,-2.182,-2.1904,-2.1933,-2.1974,-2.2034,-2.2073,-2.2116,-2.217,-2.2209,-2.2258,-2.2293,-2.2364,-2.2408,-2.2452,-2.25,-2.2514,-2.2539,-2.255,-2.2535,-2.2532,-2.2554,-2.2555,-2.2574,-2.2574,-2.2574,-2.2574,0,-2.175,-2.1808,-2.1863,-2.1943,-2.1964,-2.199,-2.206,-2.209,-2.2135,-2.2184,-2.2199,-2.227,-2.2325,-2.2384,-2.2459,-2.2488,-2.2534,-2.255,-2.2513,-2.252,-2.2526,-2.2524,-2.2535,-2.254,-2.2561,-2.256,-2.256,0,-2.1745,-2.1772,-2.1856,-2.1885,-2.1922,-2.1969,-2.2004,-2.2065,-2.21,-2.2173,-2.2195,-2.2254,-2.2304,-2.2389,-2.2448,-2.2506,-2.2524,-2.2524,-2.2533,-2.2517,-2.2525,-2.2522,-2.2526,-2.252,-2.252,-2.252,-2.2519,0,-2.1729,-2.1757,-2.1806,-2.1865,-2.1905,-2.1955,-2.2006,-2.2028,-2.21,-2.2137,-2.2193,-2.2232,-2.2309,-2.2367,-2.2433,-2.2473,-2.2508,-2.2516,-2.2521,-2.2506,-2.2483,-2.2496,-2.2506,-2.2515,-2.2516,-2.2516,-2.2516,-2.2516,-2.1709,-2.1737,-2.18,-2.1853,-2.1898,-2.1946,-2.1978,-2.2028,-2.2077,-2.2144,-2.2177,-2.2234,-2.2297,-2.2389,-2.2428,-2.2474,-2.2485,-2.2493,-2.2495,-2.2495,-2.2492,-2.2476,-2.2487,-2.2487,-2.2487,-2.2487,-2.2487,0,-2.1697,-2.174,-2.1788,-2.1859,-2.1901,-2.1931,-2.199,-2.2023,-2.2072,-2.2128,-2.2176,-2.2243,-2.23,-2.2363,-2.2425,-2.245,-2.2467,-2.2464,-2.2462,-2.2471,-2.2478,-2.2468,-2.2448,-2.2448,-2.2448,-2.2448,-2.2448,-2.2448,-2.1695,-2.1743,-2.1778,-2.185,-2.1894,-2.195,-2.1981,-2.2026,-2.207,-2.2142,-2.2189,-2.2231,-2.229,-2.2357,-2.2411,-2.2428,-2.2449,-2.244,-2.2462,-2.2467,-2.2471,-2.2474,-2.2464,-2.2444,-2.2444,-2.2452,-2.2452,-2.2452]},{"header":{"parameterUnit":"m.s-1","parameterCategory":1,"la1":30.2991,"la2":30.254,"lo1":-89.0895,"lo2":-89.0444,"dy":0.0017,"dx":0.0017,"nx":28,"ny":28,"refTime":"2024-05-29T21:00:00:Z","depth":0,"parameterNumber":3,"parameterNumberName":"V-component_of_WINDS"},"data":[0,0,0,0,0,0,0,0,0,0,0,0,0,0,0,0,0,0,0,0,0,0,0,0,0,0,0,0,0,0,0,0,0,0,0,0,0,0,0,0,0,0,0,0,0,0,0,0,0,0,0,0,0,0,0,0,0,0,2.3803,2.3803,0,2.3847,2.3847,2.3848,2.3824,2.3823,2.3821,2.382,2.3862,2.3864,2.3866,0,0,0,0,0,0,0,0,0,0,0,0,0,2.3697,2.3699,2.3803,2.3803,2.3804,2.3847,2.3847,2.3848,2.3824,2.3823,2.3821,2.382,2.3861,2.3864,2.3867,0,0,0,0,0,0,0,0,0,0,0,0,0,2.3742,2.37,2.3803,2.3797,2.3797,2.3847,2.3847,2.3848,2.3824,2.3822,2.3821,2.3819,2.3861,2.3864,2.3867,2.3923,0,0,2.3877,2.3879,0,0,0,0,0,0,0,0,2.374,2.3746,2.3797,2.3798,2.3798,2.3828,2.3825,2.3873,2.3825,2.3814,2.382,2.3818,2.3852,2.3856,2.3868,2.3925,2.3927,2.3878,2.388,2.3881,2.3882,0,0,0,0,0,0,0,2.3737,2.3744,2.382,2.3798,2.3798,2.3792,2.3797,2.3834,2.3842,2.3815,2.3813,2.3819,2.3852,2.3865,2.3869,2.3928,2.3877,2.388,2.3882,2.3884,2.4036,2.4038,0,0,0,0,0,0,2.3734,2.3742,2.3819,2.3821,2.3764,2.3796,2.3801,2.382,2.3842,2.3844,2.382,2.3818,2.386,2.3865,2.387,2.3938,2.3881,2.3884,2.3886,2.4034,2.4036,2.4038,0,0,0,0,0,0,2.3732,2.3741,2.3817,2.3781,2.379,2.3799,2.3821,2.3822,2.3835,2.3846,2.3847,2.3832,2.3859,2.3865,2.3911,2.3939,2.3886,2.3889,2.4031,2.4035,2.4037,2.4074,0,0,0,0,0,0,2.3729,2.3741,2.3762,2.3782,2.3792,2.3857,2.3823,2.3824,2.3841,2.3838,2.3858,2.3859,2.3858,2.3906,2.3914,2.3943,2.3891,2.4029,2.4033,2.4036,2.407,2.4078,2.4084,0,0,0,0,0,2.3725,2.3769,2.3763,2.3772,2.3819,2.3859,2.3864,2.3863,2.3843,2.3865,2.3873,2.3858,2.3936,2.3911,2.392,2.395,2.4027,2.4032,2.4036,2.4067,2.4076,2.4084,0,0,0,0,0,0,2.375,2.3771,2.3765,2.3816,2.3836,2.3854,2.3881,2.3873,2.3897,2.3893,2.389,2.3895,2.3942,2.3951,2.3923,2.4007,2.3978,2.3985,2.3998,2.4007,2.4014,2.401,2.3894,0,0,0,0,0,2.3762,2.3792,2.381,2.3853,2.3864,2.3871,2.3888,2.3886,2.3906,2.3913,2.3924,2.3944,2.3972,2.3991,2.4018,2.4073,2.4077,2.4098,2.4105,2.4111,2.4116,2.4146,2.4156,2.4054,2.4053,2.4053,0,0,2.3785,2.3801,2.382,2.3859,2.3874,2.3906,2.3878,2.3912,2.3936,2.3918,2.3962,2.3972,2.3993,2.4044,2.4067,2.4052,2.4146,2.4117,2.4121,2.4123,2.4152,2.4162,2.417,2.4057,2.4056,2.4056,0,0,2.3844,2.3859,2.3898,2.3915,2.3939,2.3944,2.3954,2.3975,2.3981,2.4026,2.4014,2.4042,2.4091,2.4107,2.4122,2.4193,2.418,2.4202,2.4237,2.4267,2.4275,2.4283,2.4307,2.4316,2.4207,2.4207,2.4207,0,2.3869,2.3917,2.3919,2.3955,2.3973,2.3962,2.4001,2.4017,2.4048,2.4061,2.4045,2.4109,2.4122,2.4177,2.4195,2.4208,2.4218,2.4197,2.4275,2.4282,2.4288,2.4312,2.4321,2.421,2.4209,2.4209,2.4209,0,2.3948,2.3982,2.401,2.4043,2.4064,2.4102,2.4109,2.4131,2.4129,2.4136,2.4182,2.4199,2.423,2.4244,2.424,2.4299,2.429,2.4275,2.4245,2.43,2.4322,2.4331,2.4213,2.4212,2.4211,2.4211,0,0,2.4018,2.4055,2.4065,2.4081,2.4109,2.4135,2.4173,2.4205,2.4224,2.4247,2.4279,2.4323,2.4311,2.4327,2.4327,2.4354,2.4409,2.4335,2.4336,2.4347,2.4474,2.4483,2.4494,2.4403,2.4404,2.4406,2.4472,0,2.4078,2.4145,2.415,2.421,2.4242,2.4235,2.4268,2.4289,2.4299,2.4327,2.4337,2.4368,2.4349,2.4359,2.4386,2.4396,2.4434,2.4392,2.443,2.4432,2.4423,2.4505,2.4515,2.4576,2.4481,2.4482,2.4483,0,2.4155,2.4183,2.4248,2.4274,2.4288,2.4317,2.4349,2.4376,2.4401,2.4406,2.4427,2.4424,2.4463,2.4436,2.4491,2.4462,2.4479,2.4487,2.449,2.4491,2.4459,2.4507,2.4596,2.4604,2.4497,2.4496,2.4495,0,2.4199,2.4253,2.4299,2.4313,2.4345,2.4366,2.4381,2.4404,2.4424,2.4452,2.4465,2.4496,2.4513,2.4538,2.4543,2.4523,2.4598,2.4571,2.4602,2.4602,2.4615,2.4614,2.4706,2.463,2.463,2.463,2.463,0,2.4263,2.4303,2.4319,2.4347,2.4392,2.4398,2.4442,2.4455,2.4477,2.4507,2.4503,2.4532,2.4539,2.4569,2.4574,2.4619,2.4626,2.4631,2.4631,2.463,2.4629,2.4639,2.4634,2.4632,2.4632,2.4631,2.4631,0,2.4317,2.433,2.438,2.4408,2.4417,2.4448,2.4472,2.4499,2.451,2.4549,2.4558,2.4574,2.461,2.4619,2.4661,2.4665,2.4717,2.4714,2.4709,2.4708,2.4738,2.4735,2.4838,2.4851,2.4769,2.477,2.477,0,2.4356,2.4387,2.442,2.4441,2.4457,2.4491,2.4512,2.4521,2.4543,2.4576,2.4599,2.4635,2.4664,2.4721,2.4736,2.4769,2.4766,2.48,2.477,2.4769,2.4765,2.4762,2.4765,2.4804,2.4805,2.4806,2.4807,0,2.4424,2.443,2.4462,2.4497,2.4523,2.4551,2.4577,2.4594,2.4607,2.4633,2.467,2.4693,2.4738,2.4773,2.4807,2.4821,2.4816,2.4817,2.4825,2.4823,2.4818,2.482,2.4722,2.4813,2.4812,2.4812,2.4812,2.4811,2.4471,2.4499,2.4527,2.4563,2.4585,2.461,2.4638,2.4654,2.4686,2.4724,2.4727,2.4768,2.4795,2.484,2.4857,2.4889,2.4878,2.4891,2.4894,2.4897,2.4899,2.4816,2.4895,2.4895,2.4895,2.4895,2.4895,0,2.4537,2.4557,2.459,2.4629,2.4657,2.4654,2.4684,2.4707,2.4744,2.477,2.48,2.4844,2.4879,2.4899,2.4935,2.4956,2.4955,2.4965,2.4962,2.4966,2.4906,2.4895,2.4966,2.4966,2.4966,2.4966,2.4966,2.4966,2.4575,2.4622,2.4632,2.4691,2.4709,2.475,2.4768,2.4792,2.4813,2.4863,2.4893,2.4907,2.4931,2.4969,2.5001,2.5006,2.5019,2.503,2.5034,2.4977,2.497,2.4963,2.4951,2.5033,2.5033,2.509,2.509,2.5091]}]]